Home > Weather > Varel > Past weeks

Flag for Germany Weather for the Past 2 Weeks in Varel, Lower Saxony, Germany

Now
46 °F

Cool.


Feels Like: 40 °F
Forecast: 43 / 48 °F
Wind: 14 mph from South

Location: Wittmundhaven

Current Time: Feb 7, 2016 at 2:40:43 AM

Latest Report: Feb 7, 2016 at 1:20 AM


Visibility: N/A

Pressure: 29.47 "Hg

Humidity: 76%

Dew point: 39 °F

Location of VarelLocation

Historic Weather in Varel — Graph

°F

Varel Temperature Yesterday

Maximum temperature yesterday: 50 °F (at 2:20 PM)
Minimum temperature yesterday: 46 °F (at 12:20 AM)
Average temperature yesterday: 48 °F

High & Low Weather Summary for the Past Weeks

 TemperatureHumidityPressure
High54 °F (Jan 25, 2:20 PM)100% (Jan 23, 1:20 AM)30.45 "Hg (Jan 23, 1:20 AM)
Low32 °F (Jan 23, 12:20 AM)62% (Feb 2, 1:20 PM)29.50 "Hg (Feb 7, 12:20 AM)
Average44 °F87%29.94 "Hg
* Reported Jan 23 12:20 AM — Feb 7 12:20 AM, Varel, Weather by CustomWeather, © 2016

Note: Actual official high and low records may vary slightly from our data, if they occured in-between our weather recording intervals... More about our weather records

Advertising

Varel Weather History for the Previous 24 Hours

 ConditionsComfort  
Time TempWeatherWind HumidityBarometerVisibility
12:20 AM
Sun, Feb 7
46 °FCool.14 mph76%29.50 "HgN/A
11:20 PM
Sat, Feb 6
46 °FCool.13 mph76%29.53 "HgN/A
10:20 PM46 °FCool.10 mph76%29.53 "HgN/A
9:20 PM46 °FCool.10 mph82%29.56 "HgN/A
8:20 PM46 °FCool.10 mph82%29.59 "HgN/A
7:20 PM48 °FCool.14 mph76%29.62 "HgN/A
6:20 PM48 °FPassing clouds.14 mph76%29.62 "HgN/A
5:20 PM48 °FPartly sunny.15 mph76%29.65 "HgN/A
4:20 PM48 °FPartly sunny.14 mph82%29.65 "HgN/A
3:20 PM50 °FBroken clouds.15 mph76%29.68 "HgN/A
2:20 PM50 °FPartly sunny.14 mph76%29.68 "HgN/A
1:20 PM48 °FPartly sunny.14 mph82%29.74 "HgN/A
12:20 PM48 °FBroken clouds.15 mph82%29.77 "HgN/A
11:20 AM48 °FPartly sunny.13 mph87%29.77 "HgN/A
10:20 AM48 °FBroken clouds.12 mph87%29.80 "HgN/A
9:20 AM46 °FBroken clouds.13 mph93%29.80 "HgN/A
8:48 AM46 °FDrizzle. Partly sunny.10 mph93%29.80 "Hg4 mi
8:20 AM46 °FDrizzle. Broken clouds.9 mph93%29.80 "Hg6 mi
7:20 AM48 °FPartly cloudy.12 mph87%29.80 "HgN/A
6:20 AM48 °FPartly cloudy.13 mph87%29.83 "HgN/A
5:20 AM48 °FPassing clouds.15 mph87%29.86 "HgN/A
4:20 AM48 °FPassing clouds.15 mph87%29.89 "Hg5 mi
3:20 AM46 °FDrizzle. Fog.10 mph93%29.89 "Hg3 mi
2:20 AM46 °FDrizzle. Fog.13 mph93%29.92 "Hg3 mi
Weather by CustomWeather, © 2016

See weather overviewHow to use our weather pages